Location: ??????
(56.0120°N, 39.1740°E)
Time: 07:20:47
(UTC+00:00)

Cosmos 1782 - Pass Details

Date: 14 April 2026
Orbit: 459 x 465 km, 82.5° (Epoch: 13 May)

Event Time Altitude Azimuth Distance (km) Brightness Sun altitude
Exits shadow 23:15:43 18° 294° (WNW) 1,201 4.5 -20.3°
Maximum altitude 23:15:50 18° 297° (WNW) 1,200 4.5 -20.3°
Drops below altitude 10° 23:18:21 10° 343° (NNW) 1,621 5.8 -20.1°
Sets 23:20:56 0° 3° (N) 2,501 7.2 -19.9°
